This is the latest recevied weather packets stored in our database for station/object N2XP-3. If no packets are shown the sender has not sent any weather packets the latest 10 day(s).
| Time | Temp. | Humidity | Pressure | Rain* | Wind** | Luminosity | Snow |
|---|---|---|---|---|---|---|---|
| 1778065062 | 16.67° C | 89% | 1006.8 hPa | 0 mm | 2.24 m/s, 253° | - | - |
| 1778064758 | 16.67° C | 90% | 1006.7 hPa | 0 mm | 1.79 m/s, 302° | - | - |
| 1778064458 | 16.11° C | 90% | 1006.6 hPa | 0 mm | 1.34 m/s, 193° | - | - |
| 1778064158 | 16.11° C | 90% | 1006.6 hPa | 0 mm | 1.34 m/s, 263° | - | - |
| 1778063853 | 16.11° C | 91% | 1006.6 hPa | 0 mm | 0.89 m/s, 170° | - | - |
| 1778063252 | 16.11° C | 91% | 1006.6 hPa | 0 mm | 0.89 m/s, 200° | - | - |
| 1778062948 | 16.11° C | 91% | 1006.7 hPa | 0 mm | 1.34 m/s, 312° | - | - |
| 1778062649 | 16.11° C | 91% | 1006.7 hPa | 0 mm | 0.45 m/s, 283° | - | - |
| 1778062349 | 15.56° C | 91% | 1006.6 hPa | 0 mm | 0.89 m/s, 240° | - | - |
| 1778062041 | 15.56° C | 91% | 1006.5 hPa | 0 mm | 0.89 m/s, 255° | - | - |
| 1778061741 | 15.56° C | 91% | 1006.4 hPa | 0 mm | 0.89 m/s, 308° | - | - |
| 1778061442 | 15.56° C | 91% | 1006.5 hPa | 0 mm | 1.34 m/s, 240° | - | - |
| 1778061136 | 15.56° C | 91% | 1006.6 hPa | 0 mm | 2.24 m/s, 242° | - | - |
| 1778060829 | 15.56° C | 91% | 1006.5 hPa | 0 mm | 1.34 m/s, 294° | - | - |
| 1778060530 | 15.56° C | 91% | 1006.4 hPa | 0 mm | 0 m/s | - | - |
| 1778060225 | 15.56° C | 91% | 1006.4 hPa | 0 mm | 0.89 m/s, 277° | - | - |
| 1778059925 | 15.56° C | 91% | 1006.5 hPa | 0 mm | 0.89 m/s, 201° | - | - |
| 1778059626 | 15.56° C | 91% | 1006.5 hPa | 0 mm | 0.45 m/s, 225° | - | - |
| 1778059311 | 15.56° C | 91% | 1006.5 hPa | 0 mm | 0.89 m/s, 210° | - | - |
| 1778059010 | 15.56° C | 91% | 1006.6 hPa | 0 mm | 0 m/s | - | - |
| 1778058743 | 15° C | 91% | 1006.6 hPa | 0 mm | 1.79 m/s, 270° | - | - |
| 1778058709 | 15° C | 91% | 1006.6 hPa | 0 mm | 1.79 m/s, 270° | - | - |
| 1778058401 | 15° C | 91% | 1006.6 hPa | 0 mm | 0 m/s | - | - |
| 1778058102 | 15° C | 91% | 1006.6 hPa | 0 mm | 0.89 m/s, 200° | - | - |
| 1778057803 | 15° C | 91% | 1006.7 hPa | 0 mm | 0 m/s | - | - |
* Rain latest hour (hover to see other rain measurements)
** Current wind speed in m/s (hover to see current wind gust speed)